Buffalo, NY

4:43 AM EST on November 15, 2019 (GMT -0500)
Buffalo Niagara International

Weather History for KBUF - September, 2019

Change the Weather History Date:

Tuesday, September 24, 2019

  Actual Average Record
Temperature  
Mean Temperature 62 °F 59 °F  
Max Temperature 67 °F 68 °F 90 °F (2017)
Min Temperature 57 °F 50 °F 32 °F (1963)
Degree Days  
Heating Degree Days 3 7  
Month to date heating degree days 24 88  
Since 1 July heating degree days 27 115  
Cooling Degree Days 0 1  
Month to date cooling degree days 51 49  
Year to date cooling degree days 596 536  
Growing Degree Days 12 (Base 50)    
Moisture  
Dew Point 54 °F    
Average Humidity 74    
Maximum Humidity 87    
Minimum Humidity 60    
Precipitation  
Precipitation T in 0.14 in 1.53 in (1977)
Month to date precipitation 5.44 3.06  
Year to date precipitation 33.81 28.22  
Snow  
Snow 0.00 in 0.00 in 0.00 in ()
Month to date snowfall 0.0 0.0  
Since 1 July snowfall 0.0 0.0  
Since 1 September snowfall 0.0 0.0  
Snow Depth 0.00 in    
Sea Level Pressure  
Sea Level Pressure 29.88 in    
Wind  
Wind Speed 10 mph (West)    
Max Wind Speed 20 mph    
Max Gust Speed 22 mph    
Visibility 10 miles    
Events      
T = Trace of Precipitation, MM = Missing Value Source: NWS Daily Summary

Daily Weather History Graph

Daily Weather History Graph

Search for Another Location

Airport or City:

Astronomy

Sep. 24, 2019 Rise Set
Actual Time 7:04 AM EDT 7:09 PM EDT
Civil Twilight 6:35 AM EDT 7:37 PM EDT
Nautical Twilight 6:02 AM EDT 8:10 PM EDT
Astronomical Twilight 5:28 AM EDT 8:44 PM EDT
Moon 1:38 AM EDT (9/24) 5:01 PM EDT (9/24)
Length of Visible Light 13h 01m
Length of Day
12h 04m
Waning Crescent, 23% of the Moon is Illuminated
Sep 24
Waning Crescent
Sep 28
New
Oct 5
First Quarter
Oct 13
Full
Oct 21
Last Quarter

Hourly Weather History & Observations

Time (EDT) Temp. Dew Point Humidity Pressure Visibility Wind Dir Wind Speed Gust Speed Precip Events Conditions
12:54 AM 62.1 °F 53.1 °F 72% 29.81 in 10.0 mi West 12.7 mph - 0.00 in   Mostly Cloudy
1:25 AM 61.0 °F 54.0 °F 78% 29.83 in 10.0 mi West 11.5 mph - N/A   Mostly Cloudy
1:54 AM 60.1 °F 54.0 °F 80% 29.83 in 10.0 mi West 11.5 mph - N/A   Mostly Cloudy
2:54 AM 59.0 °F 54.0 °F 83% 29.82 in 10.0 mi West 10.4 mph - N/A   Scattered Clouds
3:54 AM 57.9 °F 54.0 °F 87% 29.83 in 10.0 mi West 10.4 mph - N/A   Scattered Clouds
4:18 AM 57.9 °F 54.0 °F 87% 29.83 in 10.0 mi West 9.2 mph - N/A   Mostly Cloudy
4:54 AM 60.1 °F 55.0 °F 83% 29.84 in 10.0 mi West 11.5 mph - N/A   Overcast
5:21 AM 59.0 °F 54.0 °F 83% 29.85 in 10.0 mi WNW 11.5 mph - N/A   Overcast
5:54 AM 59.0 °F 54.0 °F 83% 29.86 in 10.0 mi West 6.9 mph - N/A   Overcast
6:54 AM 59.0 °F 52.0 °F 78% 29.88 in 10.0 mi WNW 10.4 mph - N/A   Overcast
7:13 AM 59.0 °F 52.0 °F 78% 29.89 in 10.0 mi WNW 9.2 mph - N/A   Overcast
7:54 AM 59.0 °F 52.0 °F 78% 29.91 in 10.0 mi NW 8.1 mph - N/A   Scattered Clouds
8:54 AM 61.0 °F 52.0 °F 72% 29.92 in 10.0 mi NW 12.7 mph - N/A   Clear
9:08 AM 61.0 °F 51.1 °F 70% 29.93 in 10.0 mi NW 12.7 mph - N/A   Partly Cloudy
9:54 AM 61.0 °F 51.1 °F 70% 29.94 in 10.0 mi NW 9.2 mph - N/A   Partly Cloudy
10:54 AM 64.0 °F 51.1 °F 63% 29.94 in 10.0 mi NW 5.8 mph - N/A   Scattered Clouds
11:54 AM 64.0 °F 50.0 °F 60% 29.93 in 10.0 mi WNW 6.9 mph - N/A   Mostly Cloudy
12:54 PM 63.0 °F 52.0 °F 67% 29.92 in 10.0 mi SW 12.7 mph - N/A   Mostly Cloudy
1:54 PM 63.0 °F 51.1 °F 65% 29.91 in 10.0 mi SW 11.5 mph - N/A   Mostly Cloudy
2:54 PM 66.0 °F 53.1 °F 63% 29.89 in 10.0 mi SW 13.8 mph - N/A   Mostly Cloudy
3:54 PM 64.0 °F 54.0 °F 70% 29.88 in 10.0 mi SW 12.7 mph - N/A   Mostly Cloudy
4:54 PM 64.9 °F 55.0 °F 70% 29.88 in 10.0 mi WSW 16.1 mph 20.7 mph N/A   Mostly Cloudy
5:28 PM 64.9 °F 55.0 °F 70% 29.89 in 10.0 mi WSW 10.4 mph - N/A   Mostly Cloudy
5:54 PM 64.9 °F 55.0 °F 70% 29.89 in 10.0 mi West 11.5 mph - N/A   Mostly Cloudy
6:54 PM 64.9 °F 55.0 °F 70% 29.89 in 10.0 mi West 13.8 mph - N/A   Mostly Cloudy
7:54 PM 64.0 °F 55.9 °F 75% 29.89 in 10.0 mi WSW 10.4 mph - N/A   Scattered Clouds
8:54 PM 63.0 °F 55.9 °F 78% 29.89 in 10.0 mi West 6.9 mph - N/A   Partly Cloudy
9:54 PM 62.1 °F 55.9 °F 80% 29.88 in 10.0 mi West 6.9 mph - N/A   Partly Cloudy
10:54 PM 60.1 °F 55.0 °F 83% 29.88 in 10.0 mi West 4.6 mph - N/A   Partly Cloudy
11:54 PM 59.0 °F 55.0 °F 87% 29.87 in 10.0 mi South 4.6 mph - N/A   Clear